Location: Asheville, NC
(35.6000°N, 82.5500°W)
Time: 20:12:17
(UTC-04:00)

Vanguard 1 Rocket - Pass Details

Date: 10 December 2017
Orbit: 654 x 4223 km, 34.3° (Epoch: 24 April)

Event Time Altitude Azimuth Distance (km) Brightness Sun altitude
Rises 00:32:45 0° 287° (WNW) 7,342 12.0 -77.2°
Reaches altitude 10° 00:37:22 10° 283° (WNW) 6,665 11.7 -76.9°
Enters shadow 00:38:52 13° 281° (WNW) 6,459 11.6 -76.9°
Maximum altitude 00:59:59 51° 216° (SW) 4,847 - -75.0°
Exits shadow 01:21:40 12° 149° (SSE) 6,453 11.6 -72.0°
Drops below altitude 10° 01:22:28 10° 148° (SSE) 6,560 11.6 -71.9°
Sets 01:27:02 0° 143° (SE) 7,217 12.0 -71.2°
